Regional Weather Roundup
Issued by NWS

Home | Current Version | Previous Version | Text Only | Print | Product List | Glossary Off
Versions: 1 2 3 4 5 6 7 8 9 10 11 12 13 14 15 16 17 18 19 20 21 22 23 24 25 26 27 28 29 30 31 32 33 34 35 36 37 38 39 40 41 42 43 44 45 46 47 48 49 50

000
ASUS43 KLSX 250407
RWRMO

WEATHER SUMMARY FOR MISSOURI
NATIONAL WEATHER SERVICE SPRINGFIELD MO
1000 PM CST SAT FEB 24 2018

NOTE: "FAIR" INDICATES FEW OR NO CLOUDS BELOW 12,000 FEET WITH NO
       SIGNIFICANT WEATHER AND/OR OBSTRUCTIONS TO VISIBILITY.
       CURRENT SKY AND/OR WEATHER CONDITIONS ARE NOT AVAILABLE FOR
       CHILLICOTHE AND FARMINGTON.

MOZ001>031-035>038-043-044-053-054-250500-
...NORTHERN AND WESTERN MISSOURI...

CITY           SKY/WX    TMP DP  RH WIND       PRES   REMARKS
KANSAS CTY INT CLEAR     32  28  85 W9        29.87S WCI  24
KANSAS C DTWN  CLEAR     35  28  75 SW7       29.89R WCI  29
LEE`S SUMMIT   MOCLDY    34  30  85 W12       29.89R WCI  25
ST JOSEPH      CLEAR     31  29  92 SW8       29.86R WCI  23
CHILLICOTHE      N/A     34  28  79 VRB6      29.84R WCI  29
KIRKSVILLE     CLOUDY    33  30  88 W17G28    29.77R WCI  22

$$
MOZ066>068-077>081-088>096-101>105-250500-
...SOUTHWEST MISSOURI...

CITY           SKY/WX    TMP DP  RH WIND       PRES   REMARKS
SPRINGFIELD    CLOUDY    39  32  76 W18G38    29.94R WCI  30
JOPLIN         CLEAR     37  34  89 W7        29.98R

$$
MOZ032>034-039>042-045>050-055>058-069>072-250500-
...CENTRAL MISSOURI...

CITY           SKY/WX    TMP DP  RH WIND       PRES   REMARKS
COLUMBIA       CLOUDY    38  36  92 W17G23    29.84R WCI  28
JEFFERSON CITY CLOUDY    42  36  79 W20G37    29.86R
ROLLA          CLOUDY    41  37  86 W24G39    29.85R
SEDALIA        CLOUDY    38  34  85 W17G28    29.90R WCI  28
WHITEMAN AFB   CLOUDY   N/A N/A N/A W18G28    29.87R
WARRENSBURG    CLOUDY    34  30  86 W14G23    29.90R WCI  24
OSAGE BEACH    CLOUDY    39  34  82 W17G23    29.91R WCI  30

$$
MOZ051-052-059>065-250500-
...EAST CENTRAL MISSOURI...

CITY           SKY/WX    TMP DP  RH WIND       PRES   REMARKS
ST LOUIS INTL  LGT RAIN  49  47  93 W21G36    29.72R
SPIRIT OF STL  LGT RAIN  49  46  90 W21G31    29.75R
ST CHARLES       N/A     48  41  76 W31G47    29.72R

$$
MOZ072>076-082>087-097>100-106>115-250500-
...SOUTH CENTRAL AND SOUTHEAST MISSOURI...

CITY           SKY/WX    TMP DP  RH WIND       PRES   REMARKS
CAPE GIRARDEAU CLOUDY    63  58  83 SW23G32   29.75R
FARMINGTON     MOCLDY    53  48  83 W16G32    29.77R
POPLAR BLUFF   MOCLDY    61  55  81 W16G28    29.80R
WEST PLAINS    CLOUDY    45  39  79 W20G30    29.89R

$$


USA.gov is the U.S. government's official web portal to all federal, state and local government web resources and services.